Regional Weather Roundup
Issued by NWS New Orleans/Baton Rouge, LA

Home | Current Version | Previous Version | Text Only | Print | Product List | Glossary On
Versions: 1 2 3 4 5 6 7 8 9 10 11 12 13 14 15 16 17 18 19 20 21 22 23 24 25 26 27 28 29 30 31 32 33 34 35 36 37 38 39 40 41 42 43 44 45 46 47 48 49 50
000
ASUS44 KLIX 210210
RWRLIX
NEW ORLEANS REGIONAL WEATHER ROUNDUP
NATIONAL WEATHER SERVICE NEW ORLEANS LA
900 PM CDT WED AUG 20 2014

NOTE: "FAIR" INDICATES FEW OR NO CLOUDS BELOW 12,000 FEET WITH NO
      SIGNIFICANT WEATHER AND/OR OBSTRUCTIONS TO VISIBILITY.
      SKY/WX - SKY CONDITION AND SIGNIFICANT WEATHER.
      TMP - AIR TEMPERATURE.     DP    - DEWPOINT TEMPERATURE.
      RH  - RELATIVE HUMIDITY.   PRES  - PRESSURE.
      HI  - HEAT INDEX.          WCI   - WIND CHILL INDEX.

*  THESE STATIONS ARE NOT NWS OR FAA STATIONS AND ARE NOT UNDER
   NWS QUALITY CONTROL.

LAZ038-040-048-061>063-065>067-069-210300-
SOUTHEAST LOUISIANA

CITY           SKY/WX    TMP DP  RH WIND       PRES   REMARKS
N.O. AUDUBON     N/A     79  76  90 MISG        N/A
N.O. INTL ARPT MOCLDY    80  71  74 SW7       30.07R
N.O. LAKEFRONT MOCLDY    82  75  79 SW6       30.08R
N.O. DOWNTOWN*   N/A     82  70  65 S3        30.09R
SLIDELL        MOCLDY    83  74  74 CALM      30.07R
BATON ROUGE    CLOUDY    79  74  84 S3        30.07S
BOOTHVILLE     PTCLDY    85  76  74 SW6       30.08R
BELLE CHASSE   MOCLDY    80  73  79 CALM      30.08R
BOGALUSA*        N/A     82  74  76 CALM      30.09R
GALLIANO*      NOT AVBL
NEW ROADS*       N/A     76  74  95 CALM      30.07R
GONZALES*        N/A     76  76 100 CALM      30.06F
HAMMOND*       MOCLDY    77  72  83 CALM      30.10R
HOUMA*         CLOUDY    76  73  87 CALM      30.07S
PORT FOURCHON* CLEAR     86  77  74 S5        30.09R HX  97

$$

MSZ070-080>082-210300-
SOUTHERN MISSISSIPPI

CITY           SKY/WX    TMP DP  RH WIND       PRES   REMARKS
MCCOMB         MOCLDY    79  72  79 SW3       30.08R
GULFPORT       PTCLDY    86  75  69 SW8       30.06R HX  95
BILOXI         PTCLDY    85  76  75 SW9       30.07R
PASCAGOULA     CLEAR     81  76  84 CALM      30.07R

$$

COASTAL OBSERVATIONS
LAKE AND NEARSHORE STATIONS

STATION/POSITION TIME  TEMP    WIND        PRES    WAVE
                       AIR SEA DIR/SP/G            HT/PER
                 (UTC) (F)     (DEG/KT/KT) (MB)    (FT/S)
PASCAGOULA       0200   86     210/  8/ 12 1017.6
WAVELAND YACHT   0200   85     220/  5/  8 1017.5
GRAND ISLE       0200   85 89  220/  4/  6 1019.0
SOUTHWEST PASS   0200   86 89  210/  5/  8 1019.0
NEW CANAL        0200   83 84  210/  4/  5 1018.9
SHELL BEACH      0200   84 82  200/  4/  5 1018.4

OFFSHORE STATIONS

STATION/POSITION TIME  TEMP    WIND        PRES    WAVE
                       AIR SEA DIR/SP/G            HT/PER
                 (UTC) (F)     (DEG/KT/KT) (MB)    (FT/S)
64 S DAUPHIN ISL 0129   86 89  210/  6/  8 1018.6

$$



USA.gov is the U.S. government's official web portal to all federal, state and local government web resources and services.